• In Hungary
  • List of Countries
  • For 7 days
  • Water Temperature
  • Satellite Maps
  • Weather Map
  • News
  • Weather Widgets
  • user-avatar
    Login

    Hourly Weather Korostelevo

    Today, 24 September, Monday

    Time Temperature Precipitation Wind Pressure Humidity
    00:00 +9°C° 2.3 mm 6 mps 746 mmHg 86%
    01:00 +9°C° 0.1 mm 5 mps 747 mmHg 86%
    02:00 +9°C° 0.1 mm 5 mps 747 mmHg 87%
    03:00 +10°C° 0 mm 4 mps 746 mmHg 87%
    04:00 +8°C° 0 mm 4 mps 747 mmHg 89%
    05:00 +8°C° 0 mm 4 mps 747 mmHg 90%
    06:00 +8°C° 0 mm 4 mps 748 mmHg 91%
    07:00 +10°C° 0 mm 4 mps 748 mmHg 87%
    08:00 +11°C° 0 mm 3 mps 748 mmHg 82%
    09:00 +12°C° 0 mm 3 mps 748 mmHg 77%
    10:00 +13°C° 0 mm 3 mps 749 mmHg 70%
    11:00 +14°C° 0 mm 3 mps 749 mmHg 62%
    12:00 +17°C° 0 mm 3 mps 749 mmHg 54%
    13:00 +17°C° 0 mm 3 mps 748 mmHg 51%
    14:00 +17°C° 0 mm 3 mps 748 mmHg 48%
    15:00 +18°C° 0 mm 3 mps 748 mmHg 45%
    16:00 +17°C° 0 mm 3 mps 747 mmHg 49%
    17:00 +16°C° 0 mm 3 mps 747 mmHg 53%
    18:00 +14°C° 0 mm 3 mps 746 mmHg 57%
    19:00 +14°C° 0 mm 4 mps 746 mmHg 56%
    20:00 +13°C° 0 mm 4 mps 746 mmHg 55%
    21:00 +13°C° 0 mm 5 mps 746 mmHg 54%
    22:00 +13°C° 0 mm 5 mps 745 mmHg 52%
    23:00 +13°C° 0 mm 6 mps 745 mmHg 51%

    Tomorrow, 25 September, Tuesday

    Time Temperature Precipitation Wind Pressure Humidity
    00:00 +14°C° 0 mm 6 mps 744 mmHg 49%
    01:00 +14°C° 0 mm 6 mps 743 mmHg 49%
    02:00 +14°C° 0 mm 6 mps 743 mmHg 49%
    03:00 +14°C° 0 mm 6 mps 742 mmHg 48%
    04:00 +14°C° 0.3 mm 6 mps 742 mmHg 57%
    05:00 +13°C° 0.3 mm 6 mps 741 mmHg 65%
    06:00 +13°C° 0.3 mm 6 mps 741 mmHg 73%
    07:00 +13°C° 1.5 mm 6 mps 741 mmHg 78%
    08:00 +11°C° 1.5 mm 6 mps 741 mmHg 84%
    09:00 +11°C° 1.5 mm 6 mps 741 mmHg 89%
    10:00 +12°C° 1.9 mm 5 mps 742 mmHg 86%
    11:00 +10°C° 1.9 mm 5 mps 742 mmHg 84%
    12:00 +9°C° 1.9 mm 5 mps 743 mmHg 81%
    13:00 +10°C° 0 mm 5 mps 743 mmHg 77%
    14:00 +10°C° 0 mm 5 mps 744 mmHg 73%
    15:00 +10°C° 0 mm 5 mps 744 mmHg 70%
    16:00 +10°C° 0 mm 5 mps 745 mmHg 70%
    17:00 +11°C° 0 mm 4 mps 745 mmHg 71%
    18:00 +10°C° 0 mm 4 mps 746 mmHg 71%
    19:00 +10°C° 0 mm 4 mps 746 mmHg 74%
    20:00 +8°C° 0 mm 4 mps 747 mmHg 77%
    21:00 +8°C° 0 mm 4 mps 747 mmHg 81%
    22:00 +7°C° 0 mm 4 mps 748 mmHg 82%
    23:00 +7°C° 0 mm 4 mps 748 mmHg 84%

    Day after tomorrow, 26 September, Wednesday

    Time Temperature Precipitation Wind Pressure Humidity
    00:00 +6°C° 0 mm 4 mps 748 mmHg 86%
    01:00 +6°C° 0 mm 4 mps 749 mmHg 87%
    02:00 +5°C° 0 mm 4 mps 749 mmHg 87%
    03:00 +5°C° 0 mm 4 mps 750 mmHg 88%
    04:00 +4°C° 0 mm 4 mps 750 mmHg 88%
    05:00 +4°C° 0 mm 4 mps 751 mmHg 88%
    06:00 +4°C° 0 mm 4 mps 751 mmHg 88%
    07:00 +5°C° 0 mm 4 mps 752 mmHg 83%
    08:00 +6°C° 0 mm 5 mps 752 mmHg 78%
    09:00 +7°C° 0 mm 5 mps 753 mmHg 72%
    10:00 +8°C° 0 mm 5 mps 753 mmHg 68%
    11:00 +9°C° 0 mm 5 mps 754 mmHg 64%
    12:00 +10°C° 0 mm 5 mps 754 mmHg 59%
    13:00 +10°C° 0 mm 5 mps 754 mmHg 58%
    14:00 +10°C° 0 mm 5 mps 755 mmHg 56%
    15:00 +10°C° 0 mm 5 mps 755 mmHg 55%
    16:00 +10°C° 0 mm 4 mps 755 mmHg 58%
    17:00 +9°C° 0 mm 3 mps 755 mmHg 62%
    18:00 +8°C° 0 mm 2 mps 755 mmHg 65%
    19:00 +8°C° 0 mm 2 mps 756 mmHg 66%
    20:00 +7°C° 0 mm 2 mps 756 mmHg 68%
    21:00 +6°C° 0 mm 2 mps 756 mmHg 69%
    22:00 +6°C° 0 mm 2 mps 756 mmHg 69%
    23:00 +5°C° 0 mm 2 mps 756 mmHg 69%

    27 September, Thursday

    Time Temperature Precipitation Wind Pressure Humidity
    00:00 +4°C° 0 mm 3 mps 756 mmHg 69%
    01:00 +4°C° 0 mm 3 mps 755 mmHg 69%
    02:00 +3°C° 0 mm 3 mps 755 mmHg 69%
    03:00 +3°C° 0 mm 3 mps 755 mmHg 70%
    04:00 +3°C° 0 mm 4 mps 754 mmHg 69%
    05:00 +3°C° 0 mm 4 mps 754 mmHg 69%
    06:00 +3°C° 0 mm 4 mps 754 mmHg 69%
    07:00 +3°C° 0 mm 5 mps 753 mmHg 64%
    08:00 +5°C° 0 mm 6 mps 753 mmHg 60%
    09:00 +6°C° 0 mm 8 mps 752 mmHg 55%
    10:00 +6°C° 0.2 mm 8 mps 752 mmHg 56%
    11:00 +6°C° 0.2 mm 9 mps 751 mmHg 57%
    12:00 +6°C° 0.2 mm 9 mps 750 mmHg 58%
    13:00 +6°C° 0.4 mm 9 mps 750 mmHg 61%
    14:00 +6°C° 0.4 mm 9 mps 749 mmHg 64%
    15:00 +6°C° 0.4 mm 9 mps 749 mmHg 66%
    16:00 +6°C° 0.9 mm 8 mps 748 mmHg 71%
    17:00 +6°C° 0.9 mm 8 mps 748 mmHg 76%
    18:00 +6°C° 0.9 mm 7 mps 748 mmHg 81%
    19:00 +6°C° 0.5 mm 7 mps 748 mmHg 82%
    20:00 +7°C° 0.5 mm 6 mps 748 mmHg 84%
    21:00 +7°C° 0.5 mm 6 mps 748 mmHg 86%
    22:00 +7°C° 0.1 mm 5 mps 747 mmHg 87%
    23:00 +7°C° 0.1 mm 5 mps 747 mmHg 88%

    28 September, Friday

    Time Temperature Precipitation Wind Pressure Humidity
    00:00 +7°C° 0.1 mm 5 mps 747 mmHg 89%
    01:00 +7°C° 0.1 mm 5 mps 747 mmHg 89%
    02:00 +8°C° 0.1 mm 5 mps 747 mmHg 89%
    03:00 +8°C° 0.1 mm 6 mps 747 mmHg 89%
    04:00 +8°C° 0 mm 6 mps 747 mmHg 90%
    05:00 +8°C° 0 mm 5 mps 747 mmHg 90%
    06:00 +8°C° 0 mm 5 mps 748 mmHg 90%
    07:00 +8°C° 0 mm 5 mps 748 mmHg 85%
    08:00 +9°C° 0 mm 5 mps 749 mmHg 79%
    09:00 +10°C° 0 mm 5 mps 749 mmHg 74%
    10:00 +12°C° 0 mm 5 mps 749 mmHg 67%
    11:00 +13°C° 0 mm 5 mps 749 mmHg 59%
    12:00 +14°C° 0 mm 5 mps 749 mmHg 52%
    13:00 +15°C° 0 mm 5 mps 749 mmHg 53%
    14:00 +16°C° 0 mm 6 mps 749 mmHg 53%
    15:00 +16°C° 0 mm 6 mps 748 mmHg 54%
    16:00 +15°C° 0 mm 6 mps 748 mmHg 59%
    17:00 +15°C° 0 mm 5 mps 748 mmHg 64%
    18:00 +14°C° 0 mm 5 mps 747 mmHg 69%
    19:00 +14°C° 0 mm 5 mps 747 mmHg 72%
    20:00 +14°C° 0 mm 5 mps 747 mmHg 74%
    21:00 +14°C° 0 mm 6 mps 747 mmHg 77%
    22:00 +14°C° 0 mm 6 mps 747 mmHg 77%
    23:00 +14°C° 0 mm 6 mps 747 mmHg 77%

    29 September, Saturday

    Time Temperature Precipitation Wind Pressure Humidity
    00:00 +14°C° 0 mm 5 mps 747 mmHg 77%
    01:00 +13°C° 0 mm 6 mps 746 mmHg 80%
    02:00 +13°C° 0 mm 6 mps 746 mmHg 83%
    03:00 +13°C° 0 mm 6 mps 746 mmHg 86%
    04:00 +11°C° 0 mm 6 mps 746 mmHg 87%
    05:00 +12°C° 0 mm 5 mps 746 mmHg 88%
    06:00 +12°C° 0 mm 5 mps 746 mmHg 89%
    07:00 +13°C° 0.1 mm 5 mps 746 mmHg 86%
    08:00 +14°C° 0.1 mm 5 mps 746 mmHg 83%
    09:00 +14°C° 0.1 mm 5 mps 746 mmHg 81%
    10:00 +14°C° 0.3 mm 5 mps 747 mmHg 81%
    11:00 +14°C° 0.3 mm 4 mps 747 mmHg 82%
    12:00 +14°C° 0.3 mm 3 mps 747 mmHg 83%
    13:00 +14°C° 0.2 mm 3 mps 747 mmHg 85%
    14:00 +13°C° 0.2 mm 3 mps 748 mmHg 87%
    15:00 +12°C° 0.2 mm 3 mps 748 mmHg 89%
    16:00 +12°C° 0.4 mm 4 mps 748 mmHg 90%
    17:00 +11°C° 0.4 mm 4 mps 748 mmHg 90%
    18:00 +11°C° 0.4 mm 4 mps 749 mmHg 90%
    19:00 +10°C° 0.7 mm 4 mps 749 mmHg 89%
    20:00 +9°C° 0.7 mm 5 mps 749 mmHg 89%
    21:00 +8°C° 0.7 mm 5 mps 750 mmHg 88%
    22:00 +8°C° 0.7 mm 5 mps 750 mmHg 87%
    23:00 +8°C° 0.7 mm 5 mps 750 mmHg 85%
    Show more